map of FSC home
FSC - Airport
Location
City:  Figari, Corse (Corsica), France
Name:Sud Corse
ICAO:LFKF
IATA:FSC

Details
Type:Airport (Aerodrome, Airfield)
Use:Public/Civil
Latitude:4130'08"N (41.502222)
Longitude:905'48"E (9.096667)
Elevation:87 ft (27 m)
Variation:2.48E (WMM2015 magnetic declination)
0.11 annual change
Runways:1
Longest:8136 × 148 ft (2480 × 45 m), paved

Time
Time Zone:UTC+1 (DST+2)
Local Time:

Weather
METAR:LFKF 162030Z AUTO 06014KT CAVOK 14/06 Q1020 TEMPO 06015G25KT
TAF:LFKF 161400Z 1615/1715 06017G27KT 9999 FEW050
BECMG 1705/1707 SCT030 BKN050
BECMG 1616/1618 06015KT
TEMPO 1621/1705 06015G25KT PROB30
TEMPO 1709/1715 06020G30KT -RA

Related Locations
Nearby:
Farthest:CHT: 12114 mi / 19495 km
Waitangi [Tuuta], CIT, NZ

Find:

   beyond  
but within

Other Information
Maps:
NOTAMs:
Links:
Sources:

  
  • flag of France
  • flag of Corse (Corsica)
  

Sectional Chart

Flight Planning
at skyvector.com

Satellite Image

Google Maps Satellite view

 

Copyright © 2004-2018 Karl L. Swartz. All rights reserved.
The Great Circle Mapper name and logo are trademarks of the Great Circle Mapper.
All other trademarks mentioned herein belong to their respective owners.
Please see credits for attibutions and further copyright information.

  Follow gcmap on Facebook Follow gcmap on Twitter Follow gcmap on Google+ GCmap on LinkedIn

hCard Microformat

Geo Microformat